Tracking 19279 objects as of 13-Nov-2018
HD Live streaming from Space Station
objects crossing your sky now

COSMOS 568

Track COSMOS 568 now!
10-day predictions
COSMOS 568 is classified as:


NORAD ID: 6679
Int'l Code: 1973-037E
Perigee: 1,381.6 km
Apogee: 1,487.6 km
Inclination: 74.0 °
Period: 114.4 minutes
Semi major axis: 7805 km
RCS: 0.71 m2 (medium)
Launch date: June 8, 1973
Source: Commonwealth of Independent States (former USSR) (CIS)
Launch site: PLESETSK MISSILE AND SPACE COMPLEX (PKMTR)
aabbcc
Your satellite tracking list
Your tracking list is empty




NASA's NSSDC Master Catalog

Two Line Element Set (TLE):
1  6679U 73037E   18315.61616135 -.00000001 +00000-0 +92531-4 0  9991
2  6679 074.0217 034.7008 0067947 337.2094 164.7808 12.58903526087587
Source of the keplerian elements: AFSPC